Tracking 22881 objects as of 19-Apr-2021
HD Live streaming from Space Station
objects crossing your sky now

BEIDOU G7

Track BEIDOU G7 now!
BEIDOU G7 is classified as:


NORAD ID: 41586
Int'l Code: 2016-037A
Perigee: 35,753.2 km
Apogee: 35,832.2 km
Inclination: 1.6 °
Period: 1,436.0 minutes
Semi major axis: 42163 km
RCS: Unknown
Launch date: June 12, 2016
Source: People's Republic of China (PRC)
Launch site: Xichang Space Center, China (XSC)
aabbcc
Your satellite tracking list
Your tracking list is empty




NASA's NSSDC Master Catalog

Two Line Element Set (TLE):
1 41586U 16037A   21109.43654980 -.00000352  00000-0  00000+0 0  9993
2 41586   1.5760  65.4416 0009368  11.6444  38.3523  1.00275358 17886
Source of the keplerian elements: AFSPC